When you browse on this site, cookies collect data to enhance your experience and personalize the content and advertising you see.
Visit our Privacy Policy to learn more. By continuing to use the site, you agree to this use of cookies and data.
  • în România
  • Lista ţărilor
  • Pe 7 zile
  • Temperatura apei
  • Hartă satelitară
  • Meteo pe hartă
  • Widget-uri
  • user-avatar
    Intrare

    Meteo pe oră la Aron

    Astăzi, 22 Iulie, Luni

    Timp Temperatura Precipitaţii Vânt Presiune Umiditate
    00:00 +19°C° 0 mm 1 m/s 678 mmHg 85%
    01:00 +19°C° 0 mm 1 m/s 678 mmHg 83%
    02:00 +18°C° 0 mm 2 m/s 677 mmHg 80%
    03:00 +18°C° 0 mm 2 m/s 677 mmHg 77%
    04:00 +18°C° 0 mm 2 m/s 677 mmHg 76%
    05:00 +19°C° 0 mm 2 m/s 678 mmHg 75%
    06:00 +21°C° 0 mm 1 m/s 678 mmHg 76%
    07:00 +23°C° 0 mm 1 m/s 679 mmHg 66%
    08:00 +26°C° 0 mm 1 m/s 679 mmHg 57%
    09:00 +28°C° 0 mm 1 m/s 679 mmHg 48%
    10:00 +30°C° 0 mm 2 m/s 680 mmHg 45%
    11:00 +31°C° 0 mm 2 m/s 680 mmHg 41%
    12:00 +32°C° 0 mm 2 m/s 680 mmHg 37%
    13:00 +34°C° 0 mm 2 m/s 679 mmHg 35%
    14:00 +34°C° 0 mm 2 m/s 679 mmHg 34%
    15:00 +33°C° 0 mm 1 m/s 679 mmHg 33%
    16:00 +32°C° 0 mm 1 m/s 678 mmHg 40%
    17:00 +31°C° 0 mm 1 m/s 678 mmHg 48%
    18:00 +29°C° 0 mm 1 m/s 677 mmHg 55%
    19:00 +27°C° 0 mm 1 m/s 677 mmHg 54%
    20:00 +25°C° 0 mm 2 m/s 677 mmHg 53%
    21:00 +22°C° 0 mm 3 m/s 677 mmHg 52%
    22:00 +22°C° 0 mm 3 m/s 677 mmHg 48%
    23:00 +22°C° 0 mm 3 m/s 676 mmHg 44%

    Mâine, 23 Iulie, Marţi

    Timp Temperatura Precipitaţii Vânt Presiune Umiditate
    00:00 +22°C° 0 mm 3 m/s 676 mmHg 40%
    01:00 +21°C° 0 mm 3 m/s 676 mmHg 39%
    02:00 +21°C° 0 mm 3 m/s 676 mmHg 39%
    03:00 +21°C° 0 mm 3 m/s 675 mmHg 38%
    04:00 +21°C° 0 mm 3 m/s 675 mmHg 40%
    05:00 +21°C° 0 mm 3 m/s 675 mmHg 43%
    06:00 +21°C° 0 mm 3 m/s 675 mmHg 46%
    07:00 +25°C° 0 mm 2 m/s 676 mmHg 40%
    08:00 +29°C° 0 mm 2 m/s 677 mmHg 34%
    09:00 +32°C° 0 mm 1 m/s 677 mmHg 28%
    10:00 +33°C° 0 mm 1 m/s 677 mmHg 25%
    11:00 +34°C° 0 mm 1 m/s 678 mmHg 23%
    12:00 +36°C° 0 mm 2 m/s 678 mmHg 21%
    13:00 +35°C° 0 mm 1 m/s 677 mmHg 22%
    14:00 +35°C° 0 mm 1 m/s 677 mmHg 24%
    15:00 +34°C° 0 mm 1 m/s 676 mmHg 26%
    16:00 +33°C° 0 mm 1 m/s 676 mmHg 31%
    17:00 +31°C° 0 mm 1 m/s 675 mmHg 37%
    18:00 +30°C° 0 mm 1 m/s 675 mmHg 42%
    19:00 +28°C° 0 mm 2 m/s 675 mmHg 42%
    20:00 +26°C° 0 mm 2 m/s 675 mmHg 41%
    21:00 +24°C° 0 mm 3 m/s 675 mmHg 40%
    22:00 +22°C° 0 mm 3 m/s 674 mmHg 42%
    23:00 +21°C° 0 mm 2 m/s 674 mmHg 44%

    Poimâine, 24 Iulie, Miercuri

    Timp Temperatura Precipitaţii Vânt Presiune Umiditate
    00:00 +20°C° 0 mm 2 m/s 674 mmHg 45%
    01:00 +20°C° 0 mm 2 m/s 674 mmHg 44%
    02:00 +20°C° 0 mm 2 m/s 674 mmHg 43%
    03:00 +19°C° 0 mm 2 m/s 674 mmHg 42%
    04:00 +20°C° 0 mm 2 m/s 674 mmHg 43%
    05:00 +20°C° 0 mm 2 m/s 674 mmHg 45%
    06:00 +20°C° 0 mm 2 m/s 674 mmHg 46%
    07:00 +24°C° 0 mm 2 m/s 674 mmHg 41%
    08:00 +27°C° 0 mm 1 m/s 675 mmHg 35%
    09:00 +30°C° 0 mm 1 m/s 676 mmHg 30%
    10:00 +32°C° 0 mm 1 m/s 676 mmHg 28%
    11:00 +34°C° 0 mm 2 m/s 676 mmHg 25%
    12:00 +35°C° 0 mm 2 m/s 676 mmHg 23%
    13:00 +35°C° 0 mm 2 m/s 676 mmHg 23%
    14:00 +36°C° 0 mm 2 m/s 675 mmHg 23%
    15:00 +36°C° 0 mm 2 m/s 675 mmHg 22%
    16:00 +34°C° 0 mm 2 m/s 674 mmHg 29%
    17:00 +31°C° 0 mm 1 m/s 674 mmHg 36%
    18:00 +30°C° 0 mm 1 m/s 673 mmHg 43%
    19:00 +28°C° 0 mm 2 m/s 673 mmHg 43%
    20:00 +26°C° 0 mm 2 m/s 673 mmHg 42%
    21:00 +24°C° 0 mm 3 m/s 673 mmHg 41%
    22:00 +24°C° 0 mm 3 m/s 673 mmHg 40%
    23:00 +22°C° 0 mm 3 m/s 673 mmHg 40%

    25 Iulie, Joi

    Timp Temperatura Precipitaţii Vânt Presiune Umiditate
    00:00 +22°C° 0 mm 3 m/s 672 mmHg 39%
    01:00 +22°C° 0 mm 3 m/s 672 mmHg 38%
    02:00 +22°C° 0 mm 3 m/s 672 mmHg 37%
    03:00 +22°C° 0 mm 3 m/s 672 mmHg 36%
    04:00 +22°C° 0 mm 3 m/s 672 mmHg 38%
    05:00 +22°C° 0 mm 3 m/s 672 mmHg 41%
    06:00 +23°C° 0 mm 2 m/s 673 mmHg 43%
    07:00 +26°C° 0 mm 2 m/s 673 mmHg 38%
    08:00 +29°C° 0 mm 1 m/s 674 mmHg 33%
    09:00 +32°C° 0 mm 1 m/s 675 mmHg 27%
    10:00 +33°C° 0 mm 1 m/s 675 mmHg 25%
    11:00 +35°C° 0 mm 2 m/s 675 mmHg 23%
    12:00 +36°C° 0 mm 2 m/s 675 mmHg 21%
    13:00 +36°C° 0 mm 2 m/s 674 mmHg 23%
    14:00 +35°C° 0 mm 2 m/s 674 mmHg 25%
    15:00 +35°C° 0 mm 2 m/s 674 mmHg 28%
    16:00 +32°C° 0 mm 2 m/s 673 mmHg 34%
    17:00 +31°C° 0 mm 1 m/s 673 mmHg 41%
    18:00 +29°C° 0 mm 1 m/s 673 mmHg 48%
    19:00 +27°C° 0 mm 1 m/s 673 mmHg 49%
    20:00 +25°C° 0 mm 2 m/s 673 mmHg 51%
    21:00 +24°C° 0 mm 2 m/s 673 mmHg 53%
    22:00 +21°C° 0 mm 2 m/s 673 mmHg 58%
    23:00 +20°C° 0 mm 2 m/s 672 mmHg 62%

    26 Iulie, Vineri

    Timp Temperatura Precipitaţii Vânt Presiune Umiditate
    00:00 +19°C° 0 mm 2 m/s 672 mmHg 67%
    01:00 +18°C° 0 mm 2 m/s 672 mmHg 70%
    02:00 +18°C° 0 mm 2 m/s 672 mmHg 73%
    03:00 +18°C° 0 mm 1 m/s 671 mmHg 76%
    04:00 +18°C° 0 mm 1 m/s 672 mmHg 76%
    05:00 +18°C° 0 mm 1 m/s 672 mmHg 76%
    06:00 +19°C° 0 mm 1 m/s 672 mmHg 76%
    07:00 +19°C° 0 mm 2 m/s 672 mmHg 72%
    08:00 +20°C° 0 mm 2 m/s 673 mmHg 68%
    09:00 +23°C° 0 mm 2 m/s 673 mmHg 64%
    10:00 +23°C° 0 mm 2 m/s 673 mmHg 64%
    11:00 +23°C° 0 mm 2 m/s 673 mmHg 65%
    12:00 +23°C° 0 mm 2 m/s 673 mmHg 65%
    13:00 +23°C° 0.1 mm 2 m/s 672 mmHg 65%
    14:00 +23°C° 0.1 mm 2 m/s 672 mmHg 65%
    15:00 +24°C° 0.1 mm 2 m/s 672 mmHg 65%
    16:00 +23°C° 0.3 mm 1 m/s 672 mmHg 70%
    17:00 +22°C° 0.3 mm 1 m/s 672 mmHg 76%
    18:00 +21°C° 0.3 mm 1 m/s 671 mmHg 81%
    19:00 +20°C° 0.1 mm 1 m/s 672 mmHg 84%
    20:00 +19°C° 0.1 mm 1 m/s 672 mmHg 88%
    21:00 +18°C° 0.1 mm 1 m/s 672 mmHg 91%
    22:00 +18°C° 0.3 mm 1 m/s 672 mmHg 93%
    23:00 +16°C° 0.3 mm 1 m/s 672 mmHg 95%

    27 Iulie, Sâmbătă

    Timp Temperatura Precipitaţii Vânt Presiune Umiditate
    00:00 +16°C° 0.3 mm 2 m/s 672 mmHg 97%
    01:00 +16°C° 0.3 mm 1 m/s 672 mmHg 98%
    02:00 +15°C° 0.3 mm 1 m/s 672 mmHg 98%
    03:00 +15°C° 0.3 mm 1 m/s 672 mmHg 98%
    04:00 +15°C° 0.1 mm 1 m/s 672 mmHg 98%
    05:00 +15°C° 0.1 mm 1 m/s 672 mmHg 98%
    06:00 +15°C° 0.1 mm 1 m/s 672 mmHg 98%
    07:00 +15°C° 0 mm 1 m/s 672 mmHg 97%
    08:00 +15°C° 0 mm 1 m/s 672 mmHg 96%
    09:00 +16°C° 0 mm 1 m/s 673 mmHg 95%
    10:00 +16°C° 0.1 mm 1 m/s 673 mmHg 92%
    11:00 +17°C° 0.1 mm 2 m/s 673 mmHg 90%
    12:00 +17°C° 0.1 mm 2 m/s 673 mmHg 87%
    13:00 +18°C° 0.1 mm 2 m/s 673 mmHg 84%
    14:00 +18°C° 0.1 mm 2 m/s 673 mmHg 81%
    15:00 +19°C° 0.1 mm 2 m/s 673 mmHg 78%
    16:00 +19°C° 0.1 mm 1 m/s 673 mmHg 80%
    17:00 +19°C° 0.1 mm 1 m/s 673 mmHg 83%
    18:00 +19°C° 0.1 mm 1 m/s 673 mmHg 85%
    19:00 +18°C° 0 mm 1 m/s 673 mmHg 87%
    20:00 +16°C° 0 mm 1 m/s 673 mmHg 89%
    21:00 +16°C° 0 mm 1 m/s 674 mmHg 91%
    22:00 +14°C° 0 mm 0 m/s 673 mmHg 92%
    23:00 +14°C° 0 mm 0 m/s 673 mmHg 94%
    Arată mai mult